Petersburg, AK

7:45 PM AKDT on July 25, 2017 (GMT -0800)
Johnson Petersburg

Weather History for PAPG - February, 2013

Change the Weather History Date:

Thursday, February 28, 2013

  Actual Average Record
Temperature  
Mean Temperature 40 °F -  
Max Temperature 42 °F 36 °F 65 °F (1992)
Min Temperature 37 °F 27 °F 8 °F (2011)
Degree Days  
Heating Degree Days 26    
Moisture  
Dew Point 33 °F    
Average Humidity 76    
Maximum Humidity 87    
Minimum Humidity 61    
Precipitation  
Precipitation 0.43 in - - ()
Sea Level Pressure  
Sea Level Pressure 29.62 in    
Wind  
Wind Speed 9 mph (ESE)    
Max Wind Speed 14 mph    
Max Gust Speed 24 mph    
Visibility 8 miles    
Events Rain    
Averages and records for this station are not official NWS values.
T = Trace of Precipitation, MM = Missing Value Source: NWS Daily Summary

Daily Weather History Graph

Daily Weather History Graph

Search for Another Location

Airport or City:

Trip Planner

Search our weather history database for the weather conditions in past years. The results will help you decide how hot, cold, wet, or windy it might be!

Date:

Astronomy

Feb. 28, 2013 Rise Set
Actual Time 6:45 AM AKST 5:23 PM AKST
Civil Twilight 6:07 AM AKST 6:01 PM AKST
Nautical Twilight 5:23 AM AKST 6:45 PM AKST
Astronomical Twilight 4:39 AM AKST 7:30 PM AKST
Moon 9:52 PM AKST (2/28) 7:14 AM AKST (2/28)
Length of Visible Light 11h 54m
Length of Day
10h 37m
Waning Gibbous, 90% of the Moon is Illuminated
Feb 28
Waning Gibbous
Mar 4
Last Quarter
Mar 11
New
Mar 19
First Quarter
Mar 27
Full

Hourly Weather History & Observations

Time (AKST) Temp. Windchill Dew Point Humidity Pressure Visibility Wind Dir Wind Speed Gust Speed Precip Events Conditions
4:36 AM 39.2 °F 32.5 °F 33.8 °F 81% 29.78 in 10.0 mi ESE 10.4 mph 16.1 mph N/A   Unknown
4:56 AM 39.2 °F 31.6 °F 33.8 °F 81% 29.76 in 10.0 mi ESE 12.7 mph 18.4 mph N/A   Overcast
5:16 AM 39.2 °F 31.6 °F 32.0 °F 75% 29.73 in 10.0 mi ESE 12.7 mph 17.3 mph N/A   Overcast
5:36 AM 41.0 °F 36.4 °F 30.2 °F 65% 29.72 in 10.0 mi SE 6.9 mph 17.3 mph N/A   Overcast
5:56 AM 41.0 °F 35.8 °F 30.2 °F 65% 29.70 in 10.0 mi SE 8.1 mph - N/A   Mostly Cloudy
6:16 AM 41.0 °F 35.2 °F 30.2 °F 65% 29.69 in 10.0 mi SE 9.2 mph - N/A   Mostly Cloudy
6:36 AM 42.8 °F 38.0 °F 30.2 °F 61% 29.67 in 10.0 mi SE 8.1 mph 17.3 mph N/A   Mostly Cloudy
6:56 AM 42.8 °F 36.6 °F 30.2 °F 61% 29.65 in 10.0 mi ESE 11.5 mph 21.9 mph N/A   Overcast
7:16 AM 42.8 °F 37.5 °F 30.2 °F 61% 29.63 in 10.0 mi ESE 9.2 mph 16.1 mph N/A   Overcast
7:36 AM 42.8 °F 41.1 °F 30.2 °F 61% 29.62 in 10.0 mi ESE 3.5 mph - N/A   Overcast
7:56 AM 42.8 °F 38.6 °F 30.2 °F 61% 29.60 in 10.0 mi ESE 6.9 mph - N/A   Overcast
8:16 AM 42.8 °F 38.0 °F 30.2 °F 61% 29.58 in 10.0 mi ESE 8.1 mph 18.4 mph N/A   Overcast
8:36 AM 42.8 °F 36.2 °F 30.2 °F 61% 29.56 in 10.0 mi ESE 12.7 mph 20.7 mph N/A   Overcast
8:56 AM 42.8 °F 38.6 °F 32.0 °F 66% 29.54 in 10.0 mi SE 6.9 mph - N/A   Overcast
9:16 AM 42.8 °F 36.2 °F 32.0 °F 66% 29.52 in 10.0 mi ESE 12.7 mph 19.6 mph N/A   Overcast
9:36 AM 42.8 °F 37.5 °F 32.0 °F 66% 29.53 in 10.0 mi SE 9.2 mph 20.7 mph 0.01 in   Overcast
9:56 AM 41.0 °F 33.9 °F 33.8 °F 76% 29.52 in 10.0 mi SE 12.7 mph 16.1 mph 0.03 in   Overcast
10:16 AM 41.0 °F 37.1 °F 33.8 °F 76% 29.52 in 10.0 mi ESE 5.8 mph 19.6 mph 0.04 in   Overcast
10:56 AM 39.2 °F 33.0 °F 33.8 °F 81% 29.51 in 5.0 mi ESE 9.2 mph 16.1 mph 0.09 in   Overcast
11:16 AM 39.2 °F 33.0 °F 33.8 °F 81% 29.51 in 5.0 mi East 9.2 mph - 0.03 in   Overcast
11:36 AM 39.2 °F 32.5 °F 33.8 °F 81% 29.51 in 5.0 mi ESE 10.4 mph 18.4 mph 0.05 in   Overcast
11:56 AM 39.2 °F 31.2 °F 33.8 °F 81% 29.50 in 5.0 mi ESE 13.8 mph 19.6 mph 0.09 in   Overcast
12:16 PM 39.2 °F 33.0 °F 33.8 °F 81% 29.51 in 5.0 mi ESE 9.2 mph 24.2 mph 0.03 in   Overcast
12:36 PM 39.2 °F 33.0 °F 33.8 °F 81% 29.51 in 5.0 mi East 9.2 mph 19.6 mph 0.06 in   Overcast
12:56 PM 39.2 °F 35.0 °F 33.8 °F 81% 29.51 in 5.0 mi East 5.8 mph 17.3 mph 0.10 in   Overcast
1:16 PM 39.2 °F 37.0 °F 33.8 °F 81% 29.52 in 5.0 mi East 3.5 mph - 0.02 in   Overcast
1:36 PM 39.2 °F - 33.8 °F 81% 29.53 in 5.0 mi Calm Calm - 0.04 in   Overcast
1:56 PM 39.2 °F 37.0 °F 35.6 °F 87% 29.55 in 5.0 mi NNW 3.5 mph - 0.06 in   Overcast
2:16 PM 39.2 °F 37.0 °F 35.6 °F 87% 29.57 in 5.0 mi North 3.5 mph - N/A   Overcast
2:36 PM 39.2 °F 37.0 °F 35.6 °F 87% 29.59 in 5.0 mi NE 3.5 mph - N/A   Overcast
2:56 PM 39.2 °F - 35.6 °F 87% 29.61 in 5.0 mi Calm Calm - 0.01 in   Mostly Cloudy
3:16 PM 39.2 °F 37.0 °F 33.8 °F 81% 29.63 in 5.0 mi ENE 3.5 mph - 0.02 in   Mostly Cloudy
3:36 PM 39.2 °F - 35.6 °F 87% 29.65 in 5.0 mi Calm Calm - 0.03 in   Mostly Cloudy
3:56 PM 39.2 °F 33.6 °F 33.8 °F 81% 29.66 in 7.0 mi SSE 8.1 mph - 0.05 in   Mostly Cloudy
4:48 PM 41.0 °F 35.2 °F 35.6 °F 81% 29.70 in 10.0 mi South 9.2 mph - N/A Rain Light Rain Showers
5:50 PM 39.2 °F 33.0 °F 35.6 °F 87% 29.74 in 10.0 mi South 9.2 mph - N/A Rain Light Rain Showers
6:48 PM 39.2 °F 37.0 °F 33.8 °F 81% 29.80 in 10.0 mi South 3.5 mph - N/A Rain Light Rain Showers
7:47 PM 39.2 °F 33.0 °F 33.8 °F 81% 29.83 in 10.0 mi South 9.2 mph - N/A   Mostly Cloudy
8:49 PM 37.4 °F 32.1 °F 33.8 °F 87% 29.86 in 10.0 mi South 6.9 mph - N/A   Scattered Clouds
9:47 PM 37.4 °F - 32.0 °F 81% 29.88 in 10.0 mi Calm Calm - N/A   Partly Cloudy